Dubuque, IA

8:56 AM CDT on August 23, 2019 (GMT -0500)
Dubuque Regional

Weather History for KDBQ - June, 2019

Change the Weather History Date:

Saturday, June 1, 2019

  Actual Average Record
Temperature  
Mean Temperature 67 °F 64 °F  
Max Temperature 77 °F 74 °F 102 °F (1934)
Min Temperature 57 °F 54 °F 37 °F (1993)
Degree Days  
Heating Degree Days 0 3  
Month to date heating degree days 0 3  
Since 1 June heating degree days 0 3  
Since 1 July heating degree days 7402 7049  
Cooling Degree Days 2 2  
Month to date cooling degree days 2 2  
Year to date cooling degree days 28 39  
Since 1 June cooling degree days 2 2  
Growing Degree Days 17 (Base 50)    
Moisture  
Dew Point 60 °F    
Average Humidity 73    
Maximum Humidity 90    
Minimum Humidity 56    
Precipitation  
Precipitation 0.00 in 0.15 in 1.72 in (1919)
Month to date precipitation 0.00 0.15  
Year to date precipitation 17.24 13.02  
Snow  
Snow 0.00 in 0.00 in - ()
Month to date snowfall 0.0 0.0  
Since 1 June snowfall 0.0 0.0  
Since 1 July snowfall 55.2 41.9  
Snow Depth 0.00 in    
Sea Level Pressure  
Sea Level Pressure 29.79 in    
Wind  
Wind Speed 8 mph ()    
Max Wind Speed 21 mph    
Max Gust Speed 29 mph    
Visibility 8.3 miles    
Events      
T = Trace of Precipitation, MM = Missing Value Source: Averaged Metar Reports

Daily Weather History Graph

Daily Weather History Graph

Search for Another Location

Airport or City:

Astronomy

Jun. 01, 2019 Rise Set
Actual Time 5:28 AM CDT 8:33 PM CDT
Civil Twilight 4:54 AM CDT 9:07 PM CDT
Nautical Twilight 4:11 AM CDT 9:50 PM CDT
Astronomical Twilight 3:19 AM CDT 10:42 PM CDT
Moon 4:37 AM CDT (6/1) 6:43 PM CDT (6/1)
Length of Visible Light 16h 12m
Length of Day
15h 04m
Waning Crescent, 4% of the Moon is Illuminated
Jun 1
Waning Crescent
Jun 3
New
Jun 10
First Quarter
Jun 17
Full
Jun 25
Last Quarter

Hourly Weather History & Observations

Time (CDT) Temp. Dew Point Humidity Pressure Visibility Wind Dir Wind Speed Gust Speed Precip Events Conditions
12:53 AM 66.0 °F 63.0 °F 90% 29.79 in 9.0 mi SW 6.9 mph - N/A   Clear
1:53 AM 66.0 °F 62.1 °F 87% 29.78 in 8.0 mi SW 6.9 mph - N/A   Clear
2:53 AM 64.9 °F 61.0 °F 87% 29.78 in 8.0 mi WSW 9.2 mph - N/A   Clear
3:53 AM 66.0 °F 61.0 °F 84% 29.78 in 8.0 mi WSW 11.5 mph - N/A   Clear
4:53 AM 66.9 °F 60.1 °F 79% 29.78 in 8.0 mi WSW 12.7 mph - N/A   Clear
5:53 AM 64.9 °F 59.0 °F 81% 29.78 in 5.0 mi WSW 13.8 mph - N/A   Clear
6:53 AM 64.9 °F 59.0 °F 81% 29.78 in 6.0 mi WSW 12.7 mph - N/A   Scattered Clouds
7:53 AM 68.0 °F 60.1 °F 76% 29.77 in 7.0 mi WSW 12.7 mph 21.9 mph N/A   Clear
8:53 AM 71.1 °F 60.1 °F 68% 29.79 in 6.0 mi West 8.1 mph - N/A   Clear
9:53 AM 73.0 °F 61.0 °F 66% 29.79 in 7.0 mi West 9.2 mph - N/A   Clear
10:53 AM 73.9 °F 61.0 °F 64% 29.78 in 7.0 mi West 3.5 mph - N/A   Clear
11:53 AM 75.0 °F 62.1 °F 64% 29.79 in 8.0 mi West 11.5 mph - N/A   Clear
12:53 PM 73.9 °F 61.0 °F 64% 29.79 in 8.0 mi West 10.4 mph - N/A   Clear
1:53 PM 72.0 °F 60.1 °F 66% 29.78 in 8.0 mi West 6.9 mph - N/A   Overcast
2:53 PM 77.0 °F 60.1 °F 56% 29.77 in 10.0 mi WNW 11.5 mph 19.6 mph N/A   Scattered Clouds
3:53 PM 75.9 °F 60.1 °F 58% 29.76 in 9.0 mi West 9.2 mph - N/A   Clear
4:53 PM 75.9 °F 60.1 °F 58% 29.75 in 9.0 mi WNW 8.1 mph - N/A   Partly Cloudy
5:53 PM 73.0 °F 60.1 °F 64% 29.76 in 9.0 mi North 5.8 mph - N/A   Partly Cloudy
6:53 PM 72.0 °F 61.0 °F 68% 29.77 in 10.0 mi North 12.7 mph - N/A   Partly Cloudy
7:53 PM 69.1 °F 60.1 °F 73% 29.77 in 10.0 mi North 8.1 mph - N/A   Clear
8:53 PM 66.0 °F 57.9 °F 75% 29.79 in 10.0 mi NNW 8.1 mph - N/A   Clear
9:53 PM 66.0 °F 57.9 °F 75% 29.83 in 10.0 mi North 11.5 mph - N/A   Mostly Cloudy
10:53 PM 63.0 °F 55.0 °F 75% 29.84 in 10.0 mi North 10.4 mph - N/A   Clear
11:53 PM 57.9 °F 53.1 °F 84% 29.86 in 10.0 mi North 4.6 mph - N/A   Clear